Aérodrome :
LOGIN :

S'inscrire | Disclaimer

   EN    FR    IT 

 










Légende :    VFR   VFR Marginal   IFR   IFR Intensif   IFR Très Intensif
Visi : 
Plafond : 
>= 8 km
>= 3000ft
5 à 8 km
1000 à 3000 ft
1500m à 5 km
500 à 1000 ft
800 à 1500m
200 à 500 ft
< 800m
< 200 ft
Symboles :   Orages  Brouillard  Fortes neiges  Fortes précipitations  Vent > 20 kt
SIGMETs :   Divers  Orages  Givrage  Turbulence  Onde Orograph.  Cendres Volcan.







- Altitude de l'aérodrome : 1989 ft
- Code IATA : KLV


LKKV - Karlovy Vary

DERNIER METAR :
  • 221200Z 11008KT 080V150 9999 SCT046 20/06 Q1015

METARs EXPIRÉS :
  • 221130Z 09008KT 040V120 9999 SCT046 20/07 Q1015
  • 221100Z VRB08KT 9999 SCT046 20/05 Q1015
  • 221030Z 13011KT 070V170 9999 SCT046 20/07 Q1015
  • 221000Z 12008KT 080V220 9999 SCT043 20/08 Q1015
  • 220930Z 10007KT 030V140 9999 SCT043 19/09 Q1015

TAF TAF LKKV
Valide du 22 à 12h jusqu'au 23 à 18h UTC


221100Z 2212/2318 07008KT CAVOK
TEMPO 2212/2222 8000 SHRA SCT040TCU
TEMPO 2310/2318 03014KT 6000 SHRA SCT027TCU
PROB30
TEMPO 2314/2318 SCT020CB
Pas de NOTAMs connus pour ce terrain.



MET'MAP, la Météo Aéronautique d'un coup d'oeil ! - Copyright ORBIFLY Décembre 2007 - Disclaimer

ORBIFLY MET'MAP TEAM :

Programmation & Développement : Alexandra Zaïnal
Conception & Développement : Baudouin d'Aumeries
Co-Programmation & Développement : Marc-Olivier Méhu
Soutien technique & logistique : Manuel Goepfert

Contact : metmap@orbifly.com




SOURCES & CREDITS :

   NOAA